Simultaneous Nadir Overpasses (SNOs) Predictions

Prediction of SNOs between LANDSAT-8 and NOAA-19 Satellite Orbit:

Table of predicted SNOs for the next 14.0 days since TLE Epoch: 6/1/2018
Index Date (LANDSAT-8) Time (LANDSAT-8) Lat,Lon (LANDSAT-8) SZA (LANDSAT-8 ) Date (NOAA-19) Time (NOAA-19) Lat,Lon (NOAA-19) SZA (NOAA-19 ) Distance(km) Time Diff (sec)
1 06/03/2018 16:41:51 77.61, -56.76 55.60 06/03/2018 16:41:20 77.61, -56.75 55.59 0.38 31
2 06/03/2018 17:31:19 -77.58, 110.74 124.45 06/03/2018 17:32:24 -77.56, 110.75 124.45 2.19 65
3 06/05/2018 22:15:35 -77.63, 39.88 124.64 06/05/2018 22:15:01 -77.63, 39.82 124.65 1.38 34
4 06/05/2018 23:05:02 77.57,-152.73 55.29 06/05/2018 23:05:56 77.60,-152.76 55.33 3.69 54
5 06/08/2018 03:49:17 77.66, 136.57 55.17 06/08/2018 03:48:32 77.64, 136.47 55.14 3.12 45
6 06/08/2018 04:38:46 -77.58, -56.09 124.92 06/08/2018 04:39:36 -77.58, -55.98 124.91 2.70 50
7 06/10/2018 09:23:02 -77.63,-126.98 125.06 06/10/2018 09:22:13 -77.65,-126.95 125.04 3.02 49
8 06/10/2018 10:12:28 77.61, 40.58 54.92 06/10/2018 10:13:07 77.59, 40.65 54.92 2.53 39
9 06/12/2018 14:56:44 77.64, -30.33 54.81 06/12/2018 14:55:44 77.67, -30.33 54.82 2.74 60
10 06/12/2018 15:46:12 -77.62, 137.22 125.22 06/12/2018 15:46:48 -77.61, 137.21 125.23 1.60 36
11 06/14/2018 20:30:28 -77.66, 66.31 125.30 06/14/2018 20:29:24 -77.65, 66.40 125.31 2.36 64




NCC Satellite Simultaneous Nadir Overpasses (SNOs) Prediction Service
